User: anonymous   Login
Location: Biltmore Gardens
(41.6070°N, 83.4666°W)
Time: 14:03:13
(UTC+00:00)
Language:

Cosmos 2344 - Orbit

View from above orbital plane
View from above orbital plane
View from above satellite
View from above satellite

Ground track
Ground track

The orbit data is extracted from the following two-line orbital elements,

1 24827U 97028A   21016.80284709  .00000100  00000-0  17903-2 0  9990
2 24827  63.3131 279.2352 1031400  44.6092  12.4828 11.07913205955469
Epoch (UTC): 16 January 2021 19:16:05
Eccentricity: 0.1031400
inclination: 63.3131°
perigee height: 1245 km
apogee height: 2998 km
right ascension of ascending node: 279.2352°
argument of perigee: 44.6092°
revolutions per day: 11.07913205
mean anomaly at epoch: 12.4828°
orbit number at epoch: 95546

The dashed part of the orbit path shows where the satellite is in the earth's shadow,  

DLR